Regional Weather Roundup
Issued by NWS Kansas City/Pleasant Hill, MO

Home | Current Version | Previous Version | Graphics & Text | Print | Product List | Glossary Off
Versions: 1 2 3 4 5 6 7 8 9 10 11 12 13 14 15 16 17 18 19 20 21 22 23 24 25 26 27

000
ASUS43 KEAX 211410
RWREAX

WEATHER ROUNDUP FOR EASTERN KANSAS AND NORTHWEST MISSOURI
NATIONAL WEATHER SERVICE KANSAS CITY/PLEASANT HILL MO
900 AM CDT SAT OCT 21 2017

KSZ040-057-103>105-MOZ028-029-037-043-211500-
...KANSAS CITY METROPOLITAN AREA...

CITY           SKY/WX    TMP DP  RH WIND       PRES   REMARKS
K.C. INTL      CLOUDY    66  59  78 S21G30    29.82R
K.C. DOWNTOWN  CLOUDY    67  59  75 S12G22    29.85R
LEES SUMMIT    CLOUDY    65  58  78 S21       29.87R
OLATHE - IXD   CLOUDY    65  59  81 S17G25    29.84S
OLATHE - OJC   CLOUDY    63  58  83 S20G28    29.85R
LAWRENCE       CLOUDY    67  61  81 S21G32    29.81R

$$

MOZ001>008-011>017-020>025-030>033-038>040-044>046-053-054-211500-
...NORTHERN AND CENTRAL MISSOURI...

CITY           SKY/WX    TMP DP  RH WIND       PRES   REMARKS
ST. JOSEPH     LGT RAIN  68  61  78 S18G28    29.78S
MOSBY          CLOUDY    66  55  68 S16G25    29.85S
WARRENSBURG    CLOUDY    66  57  72 S17G24    29.89S
WHITEMAN AFB   MOSUNNY   66  59  76 S18G25    29.87S
CLINTON        CLOUDY    66  59  77 S14G21    29.93S
SEDALIA        CLOUDY    69  61  75 S16G24    29.94S
WARSAW         NOT AVBL
CHILLICOTHE      N/A     65  57  75 S9G20     29.88S
KIRKSVILLE     MOSUNNY   66  57  72 S18G24    29.93R

$$

MOZ041-047>049-056>058-063>065-088>090-097-211500-
...EASTERN AND SOUTHERN MISSOURI...

CITY           SKY/WX    TMP DP  RH WIND       PRES   REMARKS
ST. LOUIS INTL CLOUDY    64  56  75 SE12      30.05R
SPIRIT OF STL  CLOUDY    65  58  78 S7        30.03R
COLUMBIA       MOSUNNY   63  57  81 S12       29.98S
JEFFERSON CITY CLOUDY    67  56  67 SE7       29.98S
ROLLA          PTSUNNY   67  59  75 S17G28    30.03R
OSAGE BEACH    MOSUNNY   66  58  75 S8        30.00R
SPRINGFIELD    CLOUDY    65  59  81 SE14      29.98R
BRANSON        MOSUNNY   64  57  77 SE6       30.02R
JOPLIN         CLOUDY    67  63  87 S16       29.94R
WEST PLAINS    PTSUNNY   63  59  87 S12       30.07R

$$

IAZ060-094-KSZ022-034>040-054-083-096-NEZ052-066-093-211500-
...KANSAS...SOUTHEAST NEBRASKA AND IOWA...

CITY           SKY/WX    TMP DP  RH WIND       PRES   REMARKS
TOPEKA         CLOUDY    68  62  81 S21G32    29.76R
MANHATTAN      PTSUNNY   69  62  78 S20G29    29.70R
EMPORIA        CLOUDY    66  61  84 S23G33    29.78R
CHANUTE        CLOUDY    67  61  81 S23G30    29.86S
WICHITA        CLOUDY    68  65  90 S24G35    29.76R
OMAHA          CLOUDY    69  61  75 S16       29.66R
LINCOLN        CLOUDY    69  62  78 S22G31    29.62F
FALLS CITY     CLOUDY    68  60  75 S22G33    29.71R
LAMONI         LGT RAIN  64  57  78 S16G24    29.81R
DES MOINES     CLOUDY    66  58  75 S18G24    29.79R

$$





USA.gov is the U.S. government's official web portal to all federal, state and local government web resources and services.